Вернуться в каталог

STARLINK-30441

АктивенСвязьVLEO
NORAD 57869·PAYLOAD·🇺🇸 United States

Запущен Sep 16, 2023 с Cape Canaveral Space Force Station

Loading…

Ближайшие Пролёты (ближайшие 24 часа)

TLE

СвежийSource: CelesTrak SupGP

Эпоха: Sep 15, 2026, 02:03 UTC

1 57869C 23144F   26258.08590278  .00028366  00000+0  10272-2 0  2587
2 57869  43.0002 295.3544 0001245 270.0308 154.7759 15.27570089    13

Отслеживайте STARLINK-30441 в реальном времени с AllMySat

Download on the App Store